Location: Huntington
(40.8831°N, 85.4975°W)
Time: 10:55:37
(UTC-04:00)

Hubble Space Telescope - Visible Passes

Search period start: 16 April 2021 00:00
Search period end: 26 April 2021 00:00
Orbit: 535 x 539 km, 28.5° (Epoch: 16 April)

Date Brightness Start Highest point End Pass type
(mag) Time Alt. Az. Time Alt. Az. Time Alt. Az.
21 Apr 2.9 21:17:54 10° S 21:19:09 11° SSE 21:20:23 10° SSE visible
22 Apr 2.9 21:06:23 10° SSW 21:08:06 12° S 21:09:48 10° SE visible
23 Apr 2.9 20:55:03 10° SSW 20:57:03 13° S 20:59:03 10° SE visible
23 Apr 3.3 22:35:22 10° SW 22:35:37 11° SSW 22:35:37 11° SSW visible
24 Apr 3.1 22:24:32 10° SW 22:25:23 12° SSW 22:25:23 12° SSW visible
25 Apr 3.1 22:13:51 10° SSW 22:15:05 12° SSW 22:15:05 12° SSW visible
